TimeAKST,TemperatureF,Dew PointF,Humidity,Sea Level PressureIn,VisibilityMPH,Wind Direction,Wind SpeedMPH,Gust SpeedMPH,PrecipitationIn,Events,Conditions,WindDirDegrees,DateUTC
12:53 AM,-20.9,-26.0,77,30.24,10.0,Calm,Calm,-,N/A,,Clear,0,2013-02-17 09:53:00
1:53 AM,-23.1,-29.0,74,30.24,10.0,NNW,3.5,-,N/A,,Clear,340,2013-02-17 10:53:00
3:53 AM,-20.9,-25.1,81,30.25,10.0,Calm,Calm,-,N/A,,Clear,0,2013-02-17 12:53:00
4:53 AM,-23.1,-27.0,82,30.25,10.0,North,3.5,-,N/A,,Clear,350,2013-02-17 13:53:00
5:53 AM,-23.1,-29.0,74,30.27,10.0,Calm,Calm,-,N/A,,Clear,0,2013-02-17 14:53:00
6:53 AM,-23.1,-27.0,82,30.28,10.0,Calm,Calm,-,N/A,,Clear,0,2013-02-17 15:53:00
7:53 AM,-25.1,-29.0,82,30.30,10.0,NNW,3.5,-,N/A,,Clear,340,2013-02-17 16:53:00
8:53 AM,-29.0,-33.0,81,30.30,10.0,Calm,Calm,-,N/A,,Partly Cloudy,0,2013-02-17 17:53:00
9:53 AM,-27.0,-31.0,81,30.31,10.0,Calm,Calm,-,N/A,,Partly Cloudy,0,2013-02-17 18:53:00
10:53 AM,-23.1,-27.9,78,30.32,10.0,Calm,Calm,-,N/A,,Partly Cloudy,0,2013-02-17 19:53:00
11:53 AM,-20.9,-25.1,81,30.35,10.0,Calm,Calm,-,N/A,,Partly Cloudy,0,2013-02-17 20:53:00
12:53 PM,-18.9,-25.1,74,30.36,10.0,Calm,Calm,-,N/A,,Partly Cloudy,0,2013-02-17 21:53:00
1:53 PM,-16.1,-22.0,74,30.38,10.0,Calm,Calm,-,N/A,,Partly Cloudy,0,2013-02-17 22:53:00
2:53 PM,-13.0,-20.0,71,30.40,10.0,Calm,Calm,-,N/A,,Scattered Clouds,0,2013-02-17 23:53:00
3:53 PM,-11.0,-18.0,71,30.40,10.0,Calm,Calm,-,N/A,,Scattered Clouds,0,2013-02-18 00:53:00
4:53 PM,-13.0,-18.9,75,30.41,10.0,Calm,Calm,-,N/A,,Scattered Clouds,0,2013-02-18 01:53:00
5:53 PM,-14.1,-18.9,79,30.39,10.0,East,8.1,-,N/A,,Scattered Clouds,80,2013-02-18 02:53:00
6:53 PM,-15.0,-20.9,75,30.41,10.0,East,3.5,-,N/A,,Scattered Clouds,80,2013-02-18 03:53:00
7:53 PM,-17.0,-23.1,74,30.42,10.0,Calm,Calm,-,N/A,,Clear,0,2013-02-18 04:53:00
8:53 PM,-20.0,-25.1,78,30.43,10.0,Calm,Calm,-,N/A,,Clear,0,2013-02-18 05:53:00
9:53 PM,-23.1,-27.0,82,30.45,10.0,Calm,Calm,-,N/A,,Clear,0,2013-02-18 06:53:00
10:53 PM,-25.1,-29.9,78,30.45,10.0,Calm,Calm,-,N/A,,Clear,0,2013-02-18 07:53:00
11:53 PM,-25.1,-29.9,78,30.45,10.0,Calm,Calm,-,N/A,,Clear,0,2013-02-18 08:53:00